Theta_e
316 316 316 318 327 333 336 337 336 335 337 337 339 337 335 336 335 336 336 328 325 327 330 330 333 330 333 332 332 330 333 332 333 333 329 329 328 328 326 322 320 319 317
315 316 317 319 326 333 335 336 336 334 336 337 336 335 335 335 336 336 334 327 327 330 330 331 332 331 331 331 332 332 334 332 331 329 329 327 327 327 325 325 323 319 317
314 315 316 322 325 331 335 335 336 334 335 334 334 333 333 334 335 336 333 332 326 327 329 330 332 332 330 332 331 333 331 331 330 330 330 327 328 326 325 325 324 319 317
313 314 315 316 326 331 334 336 336 335 333 333 331 333 333 331 332 333 334 330 328 327 327 327 331 331 330 332 330 330 331 330 329 330 332 332 330 329 325 322 321 319 318
313 314 314 315 318 332 335 336 336 335 334 333 332 332 333 333 330 333 334 331 330 329 328 326 328 330 329 331 328 332 332 332 331 331 332 332 329 327 325 324 321 320 318
314 313 314 315 316 331 336 336 336 336 334 332 331 331 333 333 331 328 333 331 330 330 329 328 327 329 328 331 328 331 332 332 333 332 333 332 330 328 325 324 322 321 320
314 320 322 315 316 329 337 335 336 336 335 333 331 333 333 332 331 327 328 332 331 330 330 330 329 327 326 329 330 331 333 332 332 333 332 333 331 331 327 326 324 324 320
307 309 315 322 325 322 339 337 335 336 335 334 331 333 333 332 330 328 326 331 331 329 329 329 330 328 327 326 326 328 331 332 332 332 332 333 331 330 328 328 329 324 319
302 304 308 314 322 327 337 338 337 336 334 336 333 332 333 332 330 328 326 327 330 330 330 328 330 329 329 326 326 325 328 332 332 333 333 333 332 331 329 326 329 329 323
299 300 304 307 315 325 330 339 338 336 336 334 335 334 333 332 329 328 326 324 326 327 328 329 327 328 328 329 327 327 328 332 332 334 334 334 333 332 330 329 330 329 328
298 298 299 304 309 321 330 337 339 337 336 335 335 335 333 331 329 327 326 325 324 325 327 329 326 328 327 328 328 328 329 331 332 333 333 333 333 333 331 331 332 330 328
297 298 298 300 307 314 327 333 339 338 335 335 337 336 334 331 329 327 327 324 324 324 324 327 329 325 328 328 328 328 330 332 333 333 334 333 333 333 331 331 331 331 329
296 297 298 299 305 310 319 327 334 338 337 336 338 336 334 331 329 327 325 326 325 325 323 325 326 328 328 329 328 327 329 331 333 333 334 333 333 332 331 331 331 331 330
295 296 297 298 304 304 309 323 332 336 335 336 338 336 334 331 330 328 327 326 323 324 325 324 326 327 329 330 331 330 330 331 332 332 333 332 332 332 331 331 330 330 330
294 295 297 297 300 301 304 312 326 335 335 334 337 337 334 332 330 328 327 326 326 325 325 325 326 327 329 330 331 331 331 331 332 331 331 331 331 331 330 330 330 330 330
295 294 295 296 297 300 300 303 310 326 334 334 334 335 333 333 331 328 328 326 326 324 327 326 326 327 328 329 331 329 330 330 331 332 329 331 331 330 330 330 330 330 329
295 294 294 295 296 297 299 299 302 308 325 332 333 333 332 334 332 330 328 328 326 327 327 327 328 331 332 331 331 331 331 330 331 330 329 328 326 326 329 329 329 328 323
294 295 295 295 296 296 298 299 299 303 308 317 325 331 332 333 333 332 330 330 329 329 328 326 325 327 329 327 327 330 329 328 329 327 324 325 326 327 328 329 329 327 323
293 294 294 295 295 296 296 298 300 298 302 306 311 317 329 331 332 331 331 330 330 329 329 328 329 329 325 326 324 324 324 323 327 327 326 326 326 326 326 327 325 323 322
291 292 295 294 294 295 296 296 297 299 298 301 303 307 313 324 329 329 330 330 329 329 329 329 329 329 327 327 328 328 328 327 321 323 326 325 323 322 323 325 324 321 319
289 291 292 293 294 294 295 296 296 295 298 297 299 303 306 311 316 322 326 328 328 328 328 328 328 328 328 328 328 327 326 325 325 324 322 321 322 323 319 319 317 316 318
288 289 290 291 292 293 295 295 295 296 296 297 297 297 301 303 308 313 317 320 322 324 326 325 325 326 327 325 325 323 322 322 321 320 320 319 318 317 316 316 314 313 309
288 288 289 290 291 292 292 293 294 295 296 296 297 297 297 298 301 306 307 311 313 316 318 320 321 321 322 321 321 320 321 320 319 319 319 317 315 314 314 314 314 311 305
288 288 288 289 289 290 291 292 292 294 296 296 296 297 299 297 296 299 300 303 304 307 309 311 314 317 319 319 320 320 319 319 319 317 315 314 314 314 313 313 309 303 302
288 288 288 288 289 289 290 291 291 292 293 295 295 296 296 297 298 295 296 298 299 300 303 305 307 308 310 310 310 313 314 313 313 313 312 312 312 310 309 307 305 302 301
288 288 288 288 288 288 288 289 290 291 291 293 294 295 296 296 296 298 297 296 295 296 299 300 302 304 305 306 306 306 307 307 308 309 309 308 307 306 304 300 299 299 301
Wind_Speed
22 23 24 28 32 32 34 36 39 38 37 38 31 27 30 36 37 35 35 42 33 34 32 30 30 32 27 23 24 22 22 21 24 23 17 14 13 13 10 8 7 7 7
31 26 25 28 34 35 35 38 42 43 43 43 36 31 23 34 37 36 35 38 32 34 34 31 29 31 26 26 27 27 27 26 22 17 17 12 12 16 13 11 8 9 8
32 32 29 27 31 37 37 39 42 42 45 45 40 30 23 27 30 35 31 35 36 35 36 30 31 30 27 29 30 31 29 26 22 17 9 7 7 12 18 16 11 12 11
35 36 33 31 32 35 35 37 41 42 44 48 43 34 35 33 33 38 35 38 40 37 36 33 32 33 28 29 29 28 24 20 21 21 16 8 5 7 5 10 12 14 12
34 35 35 35 32 33 34 37 41 44 44 46 40 39 37 35 33 32 38 39 40 35 36 35 34 34 32 29 29 28 27 24 19 20 18 13 10 9 6 11 14 12 13
23 29 33 33 35 33 35 37 39 42 44 47 42 42 41 38 36 36 36 42 42 41 39 36 37 35 36 29 29 30 29 26 21 20 18 16 14 11 13 13 11 13 12
42 39 28 29 30 33 37 42 46 45 46 43 48 42 44 42 40 40 40 41 43 46 43 41 40 41 39 33 31 29 28 28 24 22 21 17 15 9 15 15 14 13 12
42 41 38 30 26 29 36 38 46 48 45 44 46 45 44 44 41 43 43 41 43 48 47 45 39 39 39 37 34 32 31 27 27 24 23 20 18 17 17 15 17 12 17
43 43 42 36 34 32 37 43 41 50 54 45 48 51 47 47 45 42 44 43 43 41 44 48 45 42 38 38 37 36 32 29 27 24 26 27 22 19 18 17 19 18 17
48 48 42 39 36 32 26 42 42 45 50 51 47 51 49 46 46 42 46 44 42 40 42 46 48 44 40 37 38 34 33 31 29 25 25 27 25 23 23 23 21 22 20
41 43 42 36 30 30 24 36 40 42 45 49 50 49 53 46 43 44 45 43 43 43 40 43 47 44 44 41 39 38 36 34 30 28 26 27 26 26 27 29 25 25 25
43 42 40 35 29 25 17 22 36 38 38 47 47 47 44 51 44 43 40 43 40 41 42 42 40 44 42 42 41 40 38 33 32 30 29 28 29 30 28 32 27 29 29
45 42 38 40 38 32 16 18 23 38 34 40 43 44 44 43 49 45 44 39 40 38 42 39 40 39 39 39 41 42 40 38 34 33 31 32 31 34 33 35 32 31 32
45 39 39 46 44 41 32 11 3 30 31 37 36 41 41 44 48 43 42 40 41 40 39 41 39 39 39 39 39 38 38 37 35 33 33 35 34 34 35 35 33 32 32
47 44 49 50 45 50 47 27 9 16 26 35 29 37 33 35 37 44 41 40 38 40 40 39 39 38 36 38 39 38 37 38 37 39 37 37 36 35 35 35 33 31 32
44 52 51 51 54 53 50 45 28 9 23 23 30 32 25 32 38 42 44 42 40 39 37 36 37 36 38 38 39 40 40 39 40 42 41 40 38 37 38 37 32 30 32
47 49 52 52 50 53 50 50 45 26 10 18 22 24 29 34 37 37 38 39 42 42 41 37 34 34 36 38 38 37 36 35 33 31 30 32 33 32 35 35 34 34 34
49 46 45 52 56 52 42 50 53 46 31 16 12 29 32 32 31 34 33 36 37 42 41 40 40 37 37 36 36 35 32 30 31 31 34 35 34 33 31 33 37 36 35
41 41 44 47 47 49 52 42 43 56 49 36 21 10 17 27 30 32 32 32 34 36 39 41 37 37 40 36 33 36 37 35 33 33 36 34 33 32 30 34 37 35 37
38 41 36 39 43 44 41 52 46 42 53 46 36 25 12 14 25 28 32 32 36 36 35 33 34 36 36 39 37 37 35 28 27 35 38 37 35 29 28 37 40 39 35
33 35 36 34 30 34 36 42 43 47 36 42 44 38 27 15 9 17 26 32 35 36 33 32 34 34 33 34 33 29 25 24 27 33 34 32 31 30 30 37 34 33 30
31 31 32 35 37 36 34 36 37 34 39 36 39 43 38 33 18 12 12 16 20 24 28 29 29 28 26 25 23 19 23 22 23 23 20 20 21 22 25 32 30 26 20
27 26 29 29 29 27 30 28 29 33 27 34 34 34 40 37 36 27 21 14 14 19 21 22 21 22 22 22 21 22 21 22 20 17 16 18 20 23 27 28 27 25 23
27 26 27 25 27 27 27 29 29 27 23 26 26 29 27 32 35 35 34 29 24 15 9 12 16 18 22 22 22 22 23 22 21 19 20 21 22 25 25 27 27 25 26
24 26 25 22 22 23 23 22 25 25 27 28 29 24 26 24 23 30 29 31 28 29 21 13 6 4 10 12 12 15 17 18 20 21 22 24 26 27 28 28 28 27 26
26 24 24 22 21 20 19 19 21 24 24 23 23 23 24 12 20 18 21 21 25 26 24 25 21 10 6 6 7 8 10 10 12 16 19 22 24 26 28 27 26 25 25
Wind_Direction
258 246 228 220 213 208 202 202 203 195 190 190 192 198 206 203 195 202 195 191 185 182 169 181 186 178 183 185 194 193 180 180 192 189 188 193 197 198 208 203 201 190 190
256 250 234 219 214 209 204 202 209 201 191 194 191 194 193 196 197 199 197 185 185 178 175 186 191 176 186 183 195 192 175 195 199 186 179 184 207 216 230 227 218 207 202
257 252 240 224 218 211 208 204 208 209 199 198 194 192 189 192 193 188 188 196 187 188 184 187 190 185 189 192 202 192 199 197 193 199 168 174 209 213 232 226 221 220 209
252 251 250 234 220 216 211 208 204 209 204 203 199 196 191 195 195 196 188 191 188 191 190 190 186 191 189 199 204 200 196 195 195 197 198 217 211 184 164 217 210 213 220
248 249 244 242 233 214 209 208 204 211 214 205 199 193 196 199 198 195 195 190 187 194 194 195 188 196 189 207 213 199 196 205 204 204 208 220 207 197 174 175 205 214 223
280 250 251 248 236 209 200 213 204 207 215 209 200 199 195 198 196 194 194 197 192 194 199 198 197 196 191 201 215 204 208 207 207 207 207 213 206 219 200 199 199 205 224
348 348 329 253 244 209 198 208 212 204 212 215 202 202 199 198 197 194 193 193 192 194 196 199 202 199 201 198 206 211 211 212 212 216 213 213 214 221 210 203 201 213 197
342 335 330 319 308 233 199 200 211 206 205 212 206 200 202 199 197 198 195 196 195 199 199 198 203 206 207 202 209 210 214 218 219 225 221 219 217 223 228 216 224 200 195
340 332 325 319 312 300 203 200 203 214 211 206 207 204 204 200 198 200 197 197 199 201 198 202 202 207 207 211 209 214 217 216 226 229 227 228 219 222 232 221 230 234 209
344 338 328 319 311 303 282 203 213 212 211 208 205 208 203 204 201 202 198 200 201 201 202 204 205 208 208 211 211 218 216 222 226 229 231 233 230 230 231 238 239 239 240
339 337 332 325 315 309 276 209 207 212 212 211 209 212 212 204 206 203 205 201 203 201 203 203 208 206 210 211 215 216 221 224 227 232 233 235 231 226 230 249 245 240 242
341 340 337 344 348 327 287 264 203 215 219 217 209 209 213 210 207 206 205 205 203 203 202 203 206 209 209 212 216 219 220 223 229 231 231 228 230 229 224 249 251 245 245
343 345 345 360 13 1 320 273 231 213 214 211 212 205 211 207 207 207 205 207 203 203 203 206 205 208 210 213 219 222 223 225 228 235 235 241 232 238 242 249 253 249 246
347 342 356 8 16 8 12 345 227 216 213 212 211 214 219 214 211 204 203 204 208 205 206 204 208 209 212 214 217 220 223 226 230 233 239 246 248 249 249 251 254 252 246
349 347 7 8 11 12 17 26 58 186 211 210 203 213 219 223 218 207 204 202 205 205 206 205 208 211 214 216 218 220 226 229 231 238 244 247 251 255 255 255 258 259 246
350 358 4 8 14 14 14 24 32 85 206 211 204 209 224 223 221 208 210 202 203 209 206 206 211 212 214 216 219 223 225 231 233 238 245 249 252 253 252 259 260 257 252
352 1 4 7 7 14 17 23 30 43 111 200 208 214 229 218 215 212 211 212 208 207 204 204 211 212 215 217 220 226 228 236 243 247 252 253 258 258 258 256 249 245 241
356 1 359 5 17 10 18 23 28 38 49 78 144 195 212 212 219 213 207 209 213 212 208 212 214 218 227 231 237 229 232 242 245 256 259 259 263 262 259 251 241 237 232
355 356 8 12 6 18 18 22 21 29 36 47 53 72 183 198 212 216 217 217 218 220 221 225 226 230 232 242 240 237 243 247 257 258 259 257 259 261 254 246 237 230 229
358 359 3 9 11 8 18 20 22 24 25 31 43 48 68 173 199 204 213 221 222 223 225 224 226 230 229 233 239 238 243 220 239 253 253 255 260 261 255 245 237 223 216
352 0 4 4 4 8 11 18 26 29 21 21 33 45 50 69 131 185 204 212 217 222 223 221 223 227 231 235 235 224 223 232 245 247 251 252 253 251 248 228 218 212 208
349 354 357 1 3 8 10 13 15 15 27 16 29 30 43 49 66 110 149 179 190 204 210 210 211 216 216 210 212 221 230 230 228 234 241 248 246 239 221 214 211 212 196
339 345 351 353 358 2 11 16 9 17 14 22 25 31 28 33 51 68 76 104 146 165 170 178 184 189 191 197 197 200 209 209 212 222 243 238 219 212 211 216 219 207 193
330 337 340 343 348 353 358 6 10 10 14 20 18 25 32 26 29 48 52 71 75 81 117 156 171 182 187 194 203 207 210 216 219 216 213 216 218 219 212 212 202 197 200
319 322 320 328 335 344 352 356 357 2 12 16 17 17 25 19 24 37 32 42 51 63 62 72 112 158 186 191 199 210 217 215 214 212 208 209 212 214 209 204 204 201 200
315 316 314 316 321 326 335 343 353 358 1 14 7 9 18 6 24 31 35 38 36 38 43 68 75 90 98 158 159 177 182 193 205 206 210 210 212 210 206 201 199 202 207